Location: Lafig�re
(44.4503°N, 4.0357°E)
Time: 00:44:25
(UTC+00:00)

deb Explorer IX - Pass Details

Date: 29 January 2021
Orbit: 537 x 1102 km, 38.8° (Epoch: 03 March)

Event Time Altitude Azimuth Distance (km) Brightness Sun altitude
Rises 17:52:38 0° 264° (W) 3,803 ? -11.5°
Reaches altitude 10° 17:55:33 10° 260° (W) 2,787 ? -12.0°
Maximum altitude 18:02:01 50° 187° (S) 1,148 ? -13.2°
Enters shadow 18:07:01 13° 115° (ESE) 2,212 ? -14.0°
